Regional Weather Roundup
Issued by NWS Jackson, KY

Home | Current Version | Previous Version | Text Only | Print | Product List | Glossary Off
Versions: 1 2 3 4 5 6 7 8 9 10 11 12 13 14 15 16 17 18 19 20 21 22 23 24 25 26 27 28 29 30 31 32 33 34 35 36 37 38 39 40 41 42 43 44 45 46 47 48 49 50

000
ASUS43 KJKL 231419
RWRJKL

EAST KENTUCKY HOURLY WEATHER ROUNDUP
NATIONAL WEATHER SERVICE JACKSON KY
1000 AM EDT WED JUL 23 2014

NOTE: "FAIR" INDICATES FEW OR NO CLOUDS BELOW 12,000 FEET WITH
NO SIGNIFICANT WEATHER AND/OR OBSTRUCTIONS TO VISIBILITY.

* THESE REPORTS ARE NOT UNDER NWS QUALITY CONTROL AND MAY NOT
  REPORT WEATHER SUCH AS PRECIPITATION AND FOG.

KYZ079-080-083-085-087-088-110-112-115-119-120-231500
...EASTERN KENTUCKY...

CITY           SKY/WX    TMP DP  RH WIND       PRES   REMARKS
JACKSON        MOSUNNY   79  71  76 NW6       30.12R
LONDON         SUNNY     80  71  74 SW3       30.12S
SOMERSET*      SUNNY     79  73  83 W3        30.12S
MONTICELLO*    SUNNY     83  74  74 VRB5      30.12S
MIDDLESBORO*   CLOUDY    73  70  92 CALM      30.14S
HARLAN APT*    MOSUNNY   72  68  88 MISG      30.15S
HAZARD APT*    SUNNY     79  72  78 SW6       30.11S
BLACK MTN*       N/A     68  66  94 VRB3        N/A
PIKEVILLE APT* SUNNY     77  70  78 S5        30.12R
BIG SANDY*     MOSUNNY   80  73  79 W6        30.10S
MOREHEAD APT*  PTSUNNY   77  72  83 NW5       30.12S
ASHLAND*       SUNNY     81  70  69 N5        30.04F THUNDER
$$

KYZ035-036-041-042-044-050-067-078-099-231500
...CENTRAL KENTUCKY...

CITY           SKY/WX    TMP DP  RH WIND       PRES   REMARKS
MT STERLING*   CLOUDY    77  72  83 NE5       30.12S
FLEMING/MASON* MOSUNNY   82  65  57 E6        30.07F
DANVILLE*      PTSUNNY   81  72  74 CALM      30.11F
RICHMOND*      PTSUNNY   81  70  69 W5        30.10S
LEXINGTON      PTSUNNY   80  73  79 N5        30.11R HAZE
FRANKFORT      CLOUDY    79  72  79 NE5       30.09R
$$

KYZ091>093-OHZ055-061-077-WVZ005-015-034-035-042-231500
...SOUTHERN OHIO/WEST VIRGINIA...

CITY           SKY/WX    TMP DP  RH WIND       PRES   REMARKS
COVINGTON      LGT RAIN  72  67  84 SE6       30.04F
COLUMBUS       LGT RAIN  74  67  78 S7        29.94F
DAYTON         CLOUDY    72  68  87 W8        30.06R
WILMINGTON     LGT RAIN  72  66  81 S8        30.01F
HUNTINGTON     CLOUDY    73  72  96 S5        30.06S
CHARLESTON     CLOUDY    77  73  87 CALM      30.06F
PINEVILLE*     CLOUDY    72  72 100 MISG      30.18S
BECKLEY        PTSUNNY   75  67  76 SW8       30.16F
BLUEFIELD      MOSUNNY   77  66  68 W7        30.19F
$$

VAZ002-007-008-TNZ017-027-036-066-071-231500
...SOUTHWEST VIRGINIA/EAST TENNESSEE...

CITY           SKY/WX    TMP DP  RH WIND       PRES   REMARKS
WISE*          CLOUDY    73  70  88 W3        30.21S
JONESVILLE*    MOSUNNY   73  72  94 CALM      30.16S
ABINGDON*      CLOUDY    77  71  81 SW5       30.17F
BRISTOL        CLOUDY    75  67  76 SE3       30.15S
KNOXVILLE      CLOUDY    76  70  82 W3        30.12R
OAK RIDGE      CLOUDY    78  71  79 S3        30.13R
CROSSVILLE     SUNNY     78  68  71 W6        30.17S
NASHVILLE      MOSUNNY   82  72  71 SW3       30.10R
$$

...KEY TO REMARKS...
VSB - VISIBILITY IN MILES
WCI - WIND CHILL INDEX
HX  - HEAT INDEX

$$



USA.gov is the U.S. government's official web portal to all federal, state and local government web resources and services.